[[{"header":{"parameterUnit":"m.s-1","parameterCategory":1,"la1":30.2991,"la2":30.254,"lo1":-89.0895,"lo2":-89.0444,"dy":0.0017,"dx":0.0017,"nx":28,"ny":28,"refTime":"2025-11-10T03:00:00:Z","depth":0,"parameterNumber":2,"parameterNumberName":"U-component_of_WINDS"},"data":[0,0,0,0,0,0,0,0,0,0,0,0,0,0,0,0,0,0,0,0,0,0,0,0,0,0,0,0,0,0,0,0,0,0,0,0,0,0,0,0,0,0,0,0,0,0,0,0,0,0,0,0,0,0,0,0,0,0,1.8545,1.8545,0,1.8576,1.8576,1.8576,1.8553,1.8551,1.855,1.855,1.858,1.8581,1.8583,0,0,0,0,0,0,0,0,0,0,0,0,0,1.8465,1.8466,1.8545,1.8545,1.8545,1.8576,1.8576,1.8576,1.8553,1.8551,1.855,1.8549,1.8579,1.8581,1.8583,0,0,0,0,0,0,0,0,0,0,0,0,0,1.8498,1.8467,1.8544,1.8537,1.8537,1.8576,1.8576,1.8577,1.8553,1.8551,1.855,1.8548,1.8578,1.8581,1.8584,1.8631,0,0,1.8592,1.8593,0,0,0,0,0,0,0,0,1.8496,1.8501,1.8538,1.8538,1.8537,1.8559,1.8559,1.8595,1.8553,1.8547,1.8549,1.8548,1.8574,1.8577,1.8586,1.8632,1.8633,1.8592,1.8594,1.8595,1.8595,0,0,0,0,0,0,0,1.8494,1.85,1.8557,1.8538,1.8538,1.8532,1.8535,1.8566,1.8568,1.8547,1.8546,1.855,1.8573,1.8583,1.8586,1.8634,1.8592,1.8594,1.8596,1.8597,1.8722,1.8724,0,0,0,0,0,0,1.8492,1.8498,1.8556,1.8558,1.8513,1.8535,1.8539,1.8553,1.8568,1.8569,1.8551,1.8548,1.858,1.8583,1.8587,1.8644,1.8595,1.8597,1.8599,1.872,1.8723,1.8724,0,0,0,0,0,0,1.8491,1.8498,1.8555,1.8527,1.8534,1.8538,1.8555,1.8555,1.8565,1.8571,1.8571,1.8561,1.8579,1.8584,1.8621,1.8645,1.8598,1.8601,1.8718,1.8721,1.8724,1.8758,0,0,0,0,0,0,1.8489,1.8497,1.8515,1.8528,1.8536,1.8587,1.8557,1.8557,1.857,1.8567,1.858,1.8581,1.8578,1.8617,1.8623,1.8648,1.8603,1.8716,1.872,1.8723,1.8754,1.8761,1.8767,0,0,0,0,0,1.8486,1.8523,1.8516,1.8523,1.8558,1.8588,1.8593,1.8589,1.8572,1.8589,1.8594,1.858,1.8642,1.8621,1.8628,1.8653,1.8715,1.8719,1.8722,1.8752,1.876,1.8767,0,0,0,0,0,0,1.8511,1.8524,1.8517,1.8559,1.8573,1.8584,1.8606,1.8598,1.8616,1.8613,1.8607,1.861,1.8649,1.8655,1.8632,1.8701,1.8675,1.8681,1.8695,1.8703,1.8709,1.8706,1.8605,0,0,0,0,0,1.8522,1.8546,1.8556,1.8592,1.86,1.8602,1.8615,1.8612,1.8626,1.8631,1.8638,1.8652,1.8675,1.8689,1.871,1.8756,1.8759,1.8777,1.8784,1.8789,1.8793,1.8819,1.8827,1.8737,1.8737,1.8737,0,0,1.8543,1.8553,1.8569,1.8597,1.8608,1.8633,1.8607,1.8634,1.8653,1.8635,1.867,1.8677,1.8692,1.8734,1.8753,1.874,1.8819,1.8794,1.8798,1.8799,1.8824,1.8832,1.884,1.874,1.874,1.8739,0,0,1.8595,1.8606,1.8637,1.8649,1.8666,1.8668,1.8676,1.869,1.8693,1.8729,1.8717,1.8739,1.8778,1.879,1.8801,1.8861,1.885,1.8868,1.89,1.8926,1.8933,1.8939,1.8961,1.8969,1.8873,1.8873,1.8873,0,1.862,1.8657,1.8655,1.8684,1.8697,1.8684,1.8716,1.8728,1.875,1.876,1.8746,1.8796,1.8805,1.885,1.8865,1.8875,1.8884,1.8866,1.8932,1.8938,1.8944,1.8965,1.8973,1.8875,1.8875,1.8875,1.8875,0,1.8687,1.8713,1.8737,1.8761,1.8777,1.8807,1.881,1.8827,1.8823,1.8826,1.8864,1.8876,1.8899,1.891,1.8905,1.8955,1.8947,1.8933,1.8907,1.8955,1.8974,1.8982,1.8878,1.8878,1.8877,1.8876,0,0,1.8752,1.8777,1.8785,1.8797,1.8816,1.8836,1.8867,1.8891,1.8906,1.8923,1.8949,1.8984,1.8972,1.8984,1.8982,1.9004,1.9052,1.8987,1.8988,1.8999,1.9108,1.9118,1.9127,1.9046,1.9047,1.9048,1.9107,0,1.8805,1.8859,1.8859,1.8909,1.8934,1.8924,1.8951,1.8966,1.8971,1.8993,1.8999,1.9024,1.9005,1.9013,1.9035,1.9041,1.9074,1.9037,1.9069,1.907,1.9064,1.9137,1.9147,1.9201,1.9114,1.9116,1.9116,0,1.8873,1.8894,1.8947,1.8964,1.8975,1.8999,1.9022,1.9044,1.9061,1.9064,1.908,1.9074,1.9107,1.9082,1.9126,1.9101,1.9115,1.912,1.9122,1.9124,1.9095,1.914,1.9219,1.9227,1.9128,1.9127,1.9127,0,1.8916,1.8957,1.8994,1.9004,1.9026,1.9043,1.9053,1.9069,1.9085,1.9105,1.9115,1.914,1.9152,1.9172,1.9173,1.9155,1.9218,1.9193,1.9221,1.9221,1.9233,1.9232,1.9314,1.9244,1.9244,1.9244,1.9243,0,1.8974,1.9006,1.9014,1.9036,1.9073,1.9074,1.911,1.9118,1.9134,1.9158,1.9151,1.9174,1.9175,1.9199,1.9201,1.9238,1.9244,1.9247,1.9247,1.9247,1.9247,1.9254,1.925,1.9246,1.9245,1.9245,1.9244,0,1.9026,1.9033,1.9073,1.9091,1.9096,1.9123,1.9138,1.916,1.9166,1.9197,1.9205,1.9214,1.9242,1.9246,1.9279,1.928,1.9325,1.9321,1.9319,1.9318,1.9345,1.9343,1.9435,1.9447,1.9369,1.937,1.9371,0,1.9062,1.9088,1.9109,1.9126,1.9137,1.9163,1.9179,1.9182,1.9199,1.9223,1.9242,1.927,1.9292,1.9338,1.9347,1.9373,1.9369,1.94,1.9373,1.9373,1.9369,1.9368,1.937,1.9405,1.9406,1.9406,1.9407,0,1.9126,1.9129,1.9152,1.9179,1.9199,1.9219,1.9238,1.9252,1.9257,1.9277,1.9307,1.9324,1.9359,1.9387,1.9413,1.9423,1.9416,1.9416,1.9424,1.9423,1.9421,1.9422,1.9332,1.9413,1.9412,1.9412,1.9412,1.9411,1.9171,1.9193,1.9213,1.924,1.9256,1.9274,1.9297,1.9306,1.9331,1.936,1.936,1.9393,1.9412,1.9446,1.9459,1.9484,1.9474,1.9485,1.9488,1.9491,1.9493,1.9418,1.9489,1.9489,1.9489,1.9489,1.9489,0,1.9233,1.9246,1.9272,1.93,1.9322,1.9316,1.9337,1.9356,1.9385,1.9404,1.9427,1.9461,1.9489,1.9502,1.953,1.9548,1.9546,1.9555,1.9553,1.9556,1.9501,1.9491,1.9557,1.9557,1.9557,1.9557,1.9557,1.9557,1.9268,1.9306,1.9312,1.9358,1.937,1.9403,1.9416,1.9434,1.9449,1.9488,1.9512,1.9521,1.9538,1.9567,1.9593,1.9596,1.9606,1.9617,1.9618,1.9566,1.9559,1.9553,1.9544,1.9619,1.9619,1.9671,1.9672,1.9672]},{"header":{"parameterUnit":"m.s-1","parameterCategory":1,"la1":30.2991,"la2":30.254,"lo1":-89.0895,"lo2":-89.0444,"dy":0.0017,"dx":0.0017,"nx":28,"ny":28,"refTime":"2025-11-10T03:00:00:Z","depth":0,"parameterNumber":3,"parameterNumberName":"V-component_of_WINDS"},"data":[0,0,0,0,0,0,0,0,0,0,0,0,0,0,0,0,0,0,0,0,0,0,0,0,0,0,0,0,0,0,0,0,0,0,0,0,0,0,0,0,0,0,0,0,0,0,0,0,0,0,0,0,0,0,0,0,0,0,-7.2997,-7.3,0,-7.3217,-7.3219,-7.3222,-7.3132,-7.3126,-7.3121,-7.3116,-7.3338,-7.3348,-7.3359,0,0,0,0,0,0,0,0,0,0,0,0,0,-7.2497,-7.2507,-7.2997,-7.3,-7.3003,-7.3216,-7.3219,-7.3222,-7.3133,-7.3126,-7.312,-7.3114,-7.3334,-7.3347,-7.336,0,0,0,0,0,0,0,0,0,0,0,0,0,-7.2715,-7.251,-7.2997,-7.2984,-7.2985,-7.3216,-7.3219,-7.3223,-7.3134,-7.3126,-7.3118,-7.3111,-7.333,-7.3346,-7.3361,-7.3617,0,0,-7.3411,-7.3418,0,0,0,0,0,0,0,0,-7.2703,-7.2734,-7.2983,-7.2985,-7.2987,-7.3139,-7.3124,-7.3355,-7.3136,-7.3077,-7.3116,-7.3107,-7.3278,-7.3298,-7.3356,-7.3627,-7.3637,-7.3412,-7.3422,-7.3429,-7.3433,0,0,0,0,0,0,0,-7.2688,-7.2724,-7.3084,-7.2987,-7.2989,-7.2966,-7.2988,-7.3167,-7.3218,-7.3082,-7.3076,-7.3103,-7.3277,-7.334,-7.336,-7.364,-7.3412,-7.3426,-7.3436,-7.3442,-7.4131,-7.4139,0,0,0,0,0,0,-7.2673,-7.2712,-7.3077,-7.309,-7.2823,-7.2981,-7.3006,-7.3098,-7.3216,-7.3227,-7.311,-7.3098,-7.3317,-7.3342,-7.3368,-7.3674,-7.3429,-7.3444,-7.3453,-7.4122,-7.4133,-7.4142,0,0,0,0,0,0,-7.2663,-7.2706,-7.3068,-7.29,-7.2944,-7.2998,-7.3102,-7.3106,-7.3169,-7.3237,-7.3245,-7.3165,-7.3312,-7.3345,-7.3556,-7.368,-7.3451,-7.3466,-7.4112,-7.4126,-7.4138,-7.4289,0,0,0,0,0,0,-7.2649,-7.2703,-7.2802,-7.2903,-7.2953,-7.3254,-7.3109,-7.3116,-7.3198,-7.3185,-7.3292,-7.3302,-7.3308,-7.3532,-7.3572,-7.3699,-7.3478,-7.4101,-7.4118,-7.4133,-7.4273,-7.4306,-7.4334,0,0,0,0,0,-7.2631,-7.2835,-7.2807,-7.2852,-7.3078,-7.3261,-7.329,-7.3294,-7.3208,-7.3307,-7.3351,-7.3298,-7.366,-7.3554,-7.3598,-7.3732,-7.4093,-7.4113,-7.4132,-7.426,-7.43,-7.4333,0,0,0,0,0,0,-7.2747,-7.2848,-7.2818,-7.3062,-7.3154,-7.3246,-7.3371,-7.3336,-7.3454,-7.3437,-7.3436,-7.346,-7.3678,-7.3726,-7.3606,-7.3985,-7.3864,-7.3893,-7.3946,-7.3984,-7.4013,-7.3997,-7.3492,0,0,0,0,0,-7.2801,-7.2943,-7.3023,-7.323,-7.3278,-7.3317,-7.3397,-7.3392,-7.3487,-7.3525,-7.3584,-7.3677,-7.3811,-7.39,-7.4028,-7.428,-7.4301,-7.4393,-7.4423,-7.4447,-7.4473,-7.4609,-7.465,-7.4206,-7.4206,-7.4206,0,0,-7.2914,-7.2987,-7.3076,-7.3255,-7.3326,-7.3471,-7.335,-7.3509,-7.3617,-7.3549,-7.3752,-7.3798,-7.3902,-7.4134,-7.4239,-7.4181,-7.46,-7.4472,-7.4491,-7.4503,-7.4633,-7.4675,-7.4712,-7.4219,-7.4217,-7.4215,0,0,-7.3194,-7.3264,-7.3443,-7.3517,-7.3626,-7.365,-7.3693,-7.3792,-7.382,-7.4024,-7.3975,-7.4102,-7.4335,-7.4411,-7.4479,-7.4788,-7.4744,-7.4829,-7.4987,-7.5119,-7.5154,-7.5185,-7.5295,-7.5334,-7.4854,-7.4854,-7.4855,0,-7.332,-7.3539,-7.3539,-7.3704,-7.3783,-7.3729,-7.391,-7.3981,-7.4126,-7.4181,-7.4114,-7.4404,-7.447,-7.4719,-7.4794,-7.4852,-7.49,-7.4817,-7.5149,-7.518,-7.5209,-7.5314,-7.5355,-7.4864,-7.4863,-7.4862,-7.4861,0,-7.3688,-7.3841,-7.3972,-7.4115,-7.4209,-7.4381,-7.4406,-7.4502,-7.4488,-7.452,-7.4727,-7.4804,-7.4947,-7.5005,-7.4993,-7.5253,-7.5213,-7.5148,-7.5026,-7.5261,-7.5359,-7.54,-7.4878,-7.4874,-7.4871,-7.4869,0,0,-7.4048,-7.4188,-7.4237,-7.43,-7.4416,-7.4534,-7.4702,-7.4842,-7.4924,-7.5025,-7.5166,-7.5363,-7.5303,-7.5382,-7.5378,-7.5494,-7.5733,-7.5415,-7.5417,-7.5471,-7.6023,-7.6072,-7.6118,-7.5705,-7.5712,-7.5718,-7.6014,0,-7.4337,-7.4634,-7.4639,-7.4911,-7.5051,-7.5001,-7.5148,-7.5234,-7.5268,-7.5391,-7.5427,-7.5567,-7.5478,-7.5524,-7.5638,-7.568,-7.5844,-7.5659,-7.5835,-7.5841,-7.5811,-7.6169,-7.6222,-7.6497,-7.6053,-7.6059,-7.6064,0,-7.4713,-7.4828,-7.5114,-7.521,-7.5269,-7.5401,-7.5529,-7.5647,-7.5744,-7.576,-7.5848,-7.5826,-7.5997,-7.587,-7.6104,-7.5978,-7.605,-7.6082,-7.6093,-7.6109,-7.5967,-7.6196,-7.6585,-7.6627,-7.6124,-7.6119,-7.6115,0,-7.4947,-7.5172,-7.5373,-7.5429,-7.5545,-7.5639,-7.5691,-7.578,-7.5864,-7.5976,-7.603,-7.6159,-7.6231,-7.6331,-7.6345,-7.6251,-7.658,-7.6455,-7.6598,-7.6598,-7.667,-7.6665,-7.7076,-7.6716,-7.6716,-7.6715,-7.6714,0,-7.5269,-7.5446,-7.5479,-7.5603,-7.5799,-7.5803,-7.5997,-7.6042,-7.6121,-7.6251,-7.6215,-7.6338,-7.6349,-7.6475,-7.6486,-7.6678,-7.6711,-7.6728,-7.6729,-7.6732,-7.6729,-7.6779,-7.676,-7.6726,-7.6723,-7.6721,-7.6719,0,-7.5563,-7.5593,-7.5808,-7.59,-7.5927,-7.6068,-7.6147,-7.6264,-7.6293,-7.6459,-7.6498,-7.6544,-7.669,-7.6714,-7.6886,-7.6893,-7.7124,-7.7105,-7.7092,-7.7089,-7.7231,-7.7218,-7.7689,-7.7751,-7.735,-7.7354,-7.7357,0,-7.5767,-7.5902,-7.6009,-7.6094,-7.6152,-7.6289,-7.6375,-7.6383,-7.6473,-7.6593,-7.6696,-7.6838,-7.6953,-7.7189,-7.7238,-7.7369,-7.7353,-7.7509,-7.7372,-7.737,-7.7355,-7.7347,-7.736,-7.7535,-7.7539,-7.7543,-7.7546,0,-7.6125,-7.6133,-7.6258,-7.6389,-7.6492,-7.6594,-7.6691,-7.6763,-7.6783,-7.6886,-7.7036,-7.7125,-7.7301,-7.7443,-7.7573,-7.7625,-7.759,-7.7588,-7.7628,-7.7633,-7.762,-7.7629,-7.7164,-7.7578,-7.7574,-7.7572,-7.757,-7.7569,-7.6381,-7.6498,-7.6592,-7.6732,-7.6806,-7.6898,-7.7012,-7.7056,-7.7182,-7.7326,-7.7323,-7.7487,-7.7579,-7.775,-7.7811,-7.7939,-7.7889,-7.7947,-7.7961,-7.7976,-7.799,-7.7599,-7.7963,-7.7962,-7.7961,-7.796,-7.796,0,-7.6737,-7.6795,-7.6924,-7.7061,-7.7171,-7.7128,-7.7233,-7.7328,-7.7473,-7.7562,-7.7676,-7.7848,-7.7985,-7.8045,-7.8179,-7.827,-7.8257,-7.8305,-7.8299,-7.8312,-7.8027,-7.7979,-7.8314,-7.8314,-7.8314,-7.8314,-7.8313,-7.8313,-7.6936,-7.7132,-7.7151,-7.7384,-7.744,-7.7601,-7.7665,-7.7749,-7.782,-7.8014,-7.8128,-7.8166,-7.8243,-7.8383,-7.8507,-7.852,-7.8572,-7.8628,-7.8634,-7.8367,-7.8332,-7.8297,-7.8252,-7.8639,-7.8639,-7.8908,-7.891,-7.8912]}]]